ARIANE 1 DEB, 25837

Orbit data source: Space-Track

ARIANE 1 DEB, 25837 is space debris in LEO originally from a launch on Mon, 24 Dec 1979 UTC launched from the French Guiana (FRGUI). Debris objects in space refer to the collection of defunct objects orbiting the Earth. Examples of debris include non-operational satellites, rocket bodies, and fragments generated from explosions, collisions, or faulty payload assembly.

Loading next visibility...
Identifier
25837, 1979-104L
Orbit
LEO
Country
Flag of FRFR
Related business
Manufacturer
Unknown
Mission
Spacecraft
Bus & Motor
Unknown
Mass
Unknown
Launch date (UTC)
1979-12-24 (46 years ago)
Launch vehicle
Unknown
Launch site
French Guiana (FRGUI)
Object type
Payload
Rocket body
Debris
Shape & HBR
Unknown shape, 0.1 m
Radar Cross Section
Medium (>0.1 m² and <1 m²)

Expand to show TLE details & history
Last TLE update: 3 days ago

TLE from 3 days ago
0 ARIANE 1 DEB
1 25837U 79104L   26170.53131411  .00132273 -10870-4  21848-2 0  9995
2 25837  17.9438 251.3110 1231466 282.6305  99.4855 13.15665538102658
Epoch: 2026-06-19T12:45Z
TLE epoch observation values (Epoch: 2026-06-19T12:45:05.539Z)
Latitude
10.36535°
Longitude
-173.52145°
Altitude
1,459.41 km
Speed
7.012 km/s
True Right ascension
19h 02m 02s
True Declination
10° 18' 36"
Sunlit
Object was in full shadow at epoch
Visualization orbit readout
Latitude
Unknown
Longitude
Unknown
Altitude
Unknown
Speed
Unknown
Apparent Right ascension
Unknown
Apparent Declination
Unknown
Sunlit
N/A
Visualization observer readout
Local Sidereal Time
02:31:28
Azimuth
Unknown
Elevation
Unknown
Doppler factor
Unknown
Orbital elements
Apogee altitude
2,140.441 km
Perigee altitude
272.414 km
Semi-major axis
7,584.565 km
Eccentricity
0.12315
Inclination
17.9438°
RAAN
251.311°
Arg. of periapsis
282.6305°
True anomaly
112.93532°
Mean anomaly
99.4855°
Eccentric anomaly
106.25909°
Mean motion
3.28585 °/min
Orbital period
109.56 mins
BSTAR
0.0021848
Loading maneuver chart data...
Computing Atmospheric mass density...
Loading historical data...
Loading historical data...
Loading historical data...
Loading historical data...
Loading historical data...
Loading historical data...
Loading historical data...

Documentation

Showing up to 5 results
|